This is the latest recevied weather packets stored in our database for station/object KN6ETB-1. If no packets are shown the sender has not sent any weather packets the latest 1 day(s).
| Time | Temp. | Humidity | Pressure | Rain* | Wind** | Luminosity | Snow |
|---|---|---|---|---|---|---|---|
| 1778014081 | 18.89° C | 71% | 1013 hPa | 0 mm | 0.89 m/s, 89° | 722 W/m² | - |
| 1778013779 | 18.33° C | 72% | 1013.2 hPa | 0 mm | 0.45 m/s, 177° | 535 W/m² | - |
| 1778013476 | 17.78° C | 74% | 1012.9 hPa | 0 mm | 1.34 m/s, 306° | 860 W/m² | - |
| 1778013173 | 18.33° C | 74% | 1013.1 hPa | 0 mm | 1.34 m/s, 64° | 776 W/m² | - |
| 1778012868 | 17.78° C | 74% | 1013.1 hPa | 0 mm | 0.45 m/s, 36° | 809 W/m² | - |
| 1778012565 | 18.33° C | 75% | 1013.2 hPa | 0 mm | 0.89 m/s, 107° | 291 W/m² | - |
| 1778012261 | 18.33° C | 76% | 1013.3 hPa | 0 mm | 0.45 m/s, 47° | 604 W/m² | - |
| 1778011959 | 17.78° C | 75% | 1013.1 hPa | 0 mm | 0.45 m/s, 275° | 393 W/m² | - |
| 1778011658 | 17.78° C | 77% | 1013 hPa | 0 mm | 0.45 m/s, 98° | 693 W/m² | - |
| 1778011354 | 17.78° C | 76% | 1013.2 hPa | 0 mm | 1.79 m/s, 52° | 601 W/m² | - |
| 1778011049 | 16.67° C | 79% | 1013.2 hPa | 0 mm | 0.89 m/s, 5° | 1060 W/m² | - |
| 1778010747 | 16.67° C | 81% | 1013.2 hPa | 0 mm | 0.45 m/s, 49° | 435 W/m² | - |
| 1778010444 | 16.67° C | 81% | 1013.1 hPa | 0 mm | 0.89 m/s, 29° | 392 W/m² | - |
| 1778010141 | 16.11° C | 80% | 1013.4 hPa | 0 mm | 0 m/s | 269 W/m² | - |
| 1778009837 | 16.11° C | 81% | 1013.3 hPa | 0 mm | 0.45 m/s, 283° | 248 W/m² | - |
| 1778009534 | 16.11° C | 80% | 1013.3 hPa | 0 mm | 0.45 m/s, 52° | 213 W/m² | - |
| 1778009233 | 16.11° C | 82% | 1013.3 hPa | 0 mm | 0 m/s | 230 W/m² | - |
| 1778008930 | 15.56° C | 83% | 1013.4 hPa | 0 mm | 0.45 m/s, 309° | 256 W/m² | - |
| 1778008628 | 15.56° C | 84% | 1013.4 hPa | 0 mm | 0.89 m/s, 305° | 235 W/m² | - |
| 1778008326 | 15.56° C | 84% | 1013.5 hPa | 0 mm | 0.45 m/s, 284° | 288 W/m² | - |
| 1778008022 | 15° C | 84% | 1013.3 hPa | 0 mm | 1.79 m/s, 318° | 96 W/m² | - |
| 1778007721 | 15.56° C | 84% | 1013.3 hPa | 0 mm | 0.45 m/s, 289° | 77 W/m² | - |
| 1778007419 | 15.56° C | 84% | 1013.3 hPa | 0 mm | 0.89 m/s, 333° | 150 W/m² | - |
| 1778007115 | 15.56° C | 84% | 1013 hPa | 0 mm | 0.89 m/s, 339° | 196 W/m² | - |
| 1778006811 | 15.56° C | 85% | 1013.2 hPa | 0 mm | 0 m/s | 89 W/m² | - |
* Rain latest hour (hover to see other rain measurements)
** Current wind speed in m/s (hover to see current wind gust speed)